Precipitable_Water
0.49 0.47 0.46 0.50 0.61 0.68 0.72 0.74 0.79 0.82 0.86 0.95 1.03 1.03 1.06 0.99 0.96 0.96 0.86 1.08 1.27 1.68 2.01 1.86 1.64 1.79 1.60 1.30 1.35 1.55 0.93 0.65 0.68 0.89 0.87 0.94 0.81 1.01 1.18 1.11 1.16 1.16 1.03 1.12 1.33
0.50 0.48 0.46 0.46 0.56 0.64 0.70 0.73 0.75 0.79 0.83 0.89 1.00 1.03 1.03 1.00 0.91 0.81 0.98 1.15 1.39 1.71 1.71 1.62 1.58 1.58 1.39 1.31 1.11 1.00 0.67 0.77 0.81 0.95 0.99 0.95 0.95 1.10 1.03 0.98 1.02 1.02 1.14 1.23 1.32
0.49 0.48 0.46 0.44 0.48 0.59 0.66 0.73 0.72 0.77 0.82 0.85 0.96 1.03 1.01 0.97 0.85 0.79 0.98 1.11 1.31 1.47 1.52 1.65 1.75 1.60 1.27 1.19 0.91 0.70 0.63 0.77 0.88 0.85 0.88 0.96 1.14 1.12 1.00 0.85 0.91 0.89 1.01 1.16 1.26
0.48 0.48 0.46 0.45 0.45 0.53 0.60 0.68 0.71 0.75 0.83 0.86 0.88 1.02 0.98 0.91 0.69 0.99 0.97 1.03 1.15 1.33 1.36 1.29 1.24 1.14 1.11 0.92 0.79 0.73 0.78 0.85 1.06 1.10 1.03 0.77 0.91 0.84 0.95 0.94 1.00 0.99 1.08 1.16 1.20
0.49 0.48 0.48 0.45 0.44 0.47 0.55 0.62 0.69 0.71 0.79 0.84 0.88 0.98 0.89 0.82 0.80 1.15 1.00 1.04 1.10 1.15 1.14 1.07 0.89 0.79 0.71 0.78 0.81 0.89 0.96 0.98 1.08 0.93 1.02 0.93 0.89 0.89 0.86 0.92 0.97 0.95 1.01 1.07 1.18
0.49 0.48 0.47 0.46 0.44 0.44 0.50 0.55 0.61 0.67 0.74 0.81 0.88 0.93 0.87 0.68 1.13 1.04 1.00 1.01 1.04 1.07 0.98 0.92 0.83 0.84 0.72 0.69 0.76 0.86 1.05 1.05 0.88 0.90 0.97 1.20 0.95 0.84 0.96 0.94 0.87 0.85 0.91 1.02 1.11
0.49 0.48 0.46 0.45 0.44 0.43 0.44 0.49 0.54 0.60 0.69 0.78 0.85 0.89 0.78 0.70 1.04 1.11 1.04 1.01 1.03 0.94 0.78 0.87 0.92 0.80 0.80 0.66 0.84 0.91 0.91 0.95 0.79 0.83 0.84 1.03 0.79 0.77 0.95 0.96 0.90 0.91 0.97 1.02 1.07
0.49 0.47 0.46 0.44 0.43 0.42 0.41 0.41 0.45 0.54 0.63 0.73 0.82 0.82 0.76 0.97 0.98 0.99 1.03 0.96 0.96 0.88 0.79 0.84 0.92 0.82 0.77 0.77 0.82 0.81 0.86 0.63 0.72 0.74 0.84 0.95 0.68 0.88 0.99 0.89 0.87 0.93 1.00 1.03 1.09
0.49 0.48 0.46 0.43 0.42 0.41 0.39 0.35 0.39 0.46 0.58 0.65 0.65 0.69 0.70 0.89 0.82 0.93 1.00 0.86 0.82 0.78 0.73 0.82 0.81 0.72 0.73 0.63 0.60 0.74 0.61 0.63 0.63 0.69 0.69 0.74 0.71 0.92 1.02 0.94 0.85 0.93 0.98 1.03 1.10
0.50 0.48 0.46 0.43 0.41 0.40 0.35 0.34 0.37 0.40 0.46 0.54 0.63 0.59 0.69 0.58 0.65 0.76 0.93 0.95 0.77 0.71 0.64 0.64 0.66 0.63 0.63 0.54 0.47 0.47 0.52 0.54 0.46 0.55 0.62 0.71 0.80 0.90 1.02 0.98 0.89 0.91 0.96 1.04 1.12
0.52 0.48 0.46 0.43 0.40 0.40 0.30 0.33 0.34 0.24 0.32 0.27 0.35 0.52 0.55 0.63 0.62 0.59 0.69 0.72 0.69 0.59 0.46 0.56 0.55 0.49 0.49 0.49 0.47 0.40 0.40 0.41 0.47 0.51 0.47 0.61 0.80 0.91 0.97 1.01 0.93 0.93 0.92 1.00 1.10
0.54 0.49 0.46 0.42 0.39 0.38 0.35 0.47 0.52 0.50 0.28 0.31 0.29 0.33 0.44 0.60 0.48 0.49 0.59 0.47 0.47 0.42 0.52 0.52 0.48 0.52 0.49 0.44 0.43 0.37 0.38 0.37 0.39 0.43 0.35 0.40 0.68 0.94 0.95 0.96 0.94 0.87 0.92 1.00 1.10
0.55 0.51 0.46 0.42 0.37 0.30 0.28 0.48 0.58 0.51 0.30 0.24 0.25 0.26 0.31 0.40 0.33 0.36 0.45 0.44 0.44 0.43 0.46 0.46 0.52 0.52 0.43 0.32 0.28 0.34 0.34 0.30 0.27 0.21 0.23 0.26 0.31 0.71 0.88 0.95 1.00 1.00 0.96 1.04 1.04
0.56 0.52 0.47 0.42 0.30 0.33 0.31 0.48 0.46 0.46 0.19 0.18 0.22 0.20 0.27 0.30 0.22 0.36 0.45 0.37 0.42 0.39 0.46 0.45 0.51 0.46 0.41 0.28 0.34 0.31 0.35 0.32 0.29 0.19 0.19 0.25 0.24 0.41 0.68 0.72 0.86 0.93 1.01 1.03 1.00
0.58 0.54 0.49 0.48 0.39 0.42 0.53 0.51 0.42 0.37 0.10 0.23 0.21 0.22 0.21 0.20 0.24 0.28 0.43 0.38 0.32 0.32 0.34 0.36 0.40 0.36 0.32 0.27 0.34 0.30 0.29 0.27 0.23 0.22 0.23 0.25 0.31 0.38 0.47 0.62 0.69 0.78 0.96 1.13 1.13
0.58 0.55 0.51 0.44 0.52 0.52 0.57 0.48 0.38 0.19 0.09 0.21 0.22 0.17 0.14 0.16 0.23 0.28 0.39 0.42 0.33 0.30 0.31 0.32 0.35 0.31 0.28 0.29 0.32 0.32 0.30 0.31 0.31 0.29 0.25 0.26 0.34 0.32 0.34 0.55 0.67 0.75 0.86 1.01 1.24
0.59 0.56 0.50 0.47 0.37 0.55 0.50 0.37 0.18 0.14 0.23 0.21 0.19 0.19 0.16 0.15 0.18 0.20 0.29 0.23 0.19 0.18 0.19 0.26 0.24 0.26 0.22 0.23 0.29 0.26 0.25 0.22 0.22 0.25 0.27 0.33 0.32 0.36 0.42 0.54 0.63 0.75 0.63 0.81 1.32
0.59 0.54 0.48 0.41 0.42 0.46 0.44 0.28 0.15 0.14 0.18 0.25 0.23 0.22 0.15 0.16 0.16 0.18 0.20 0.17 0.19 0.19 0.21 0.20 0.17 0.24 0.24 0.17 0.20 0.23 0.26 0.22 0.19 0.26 0.28 0.34 0.31 0.43 0.64 0.77 1.02 1.00 0.86 0.75 1.38
0.58 0.47 0.41 0.34 0.39 0.49 0.35 0.20 0.15 0.18 0.24 0.30 0.28 0.23 0.18 0.16 0.18 0.16 0.17 0.17 0.18 0.17 0.17 0.19 0.20 0.25 0.23 0.19 0.23 0.23 0.21 0.28 0.20 0.30 0.24 0.30 0.41 0.54 0.59 0.63 0.84 1.05 1.10 0.92 1.08
0.47 0.38 0.35 0.43 0.39 0.36 0.28 0.21 0.18 0.35 0.33 0.34 0.36 0.25 0.19 0.15 0.16 0.16 0.16 0.18 0.17 0.19 0.23 0.22 0.20 0.24 0.26 0.24 0.21 0.20 0.22 0.19 0.24 0.24 0.25 0.34 0.37 0.43 0.51 0.64 0.75 0.76 0.75 0.79 0.98
0.45 0.33 0.42 0.48 0.39 0.28 0.19 0.18 0.19 0.35 0.36 0.32 0.39 0.34 0.20 0.18 0.16 0.16 0.17 0.19 0.19 0.17 0.23 0.24 0.23 0.26 0.25 0.19 0.13 0.20 0.22 0.21 0.25 0.31 0.28 0.31 0.40 0.57 0.54 0.70 0.73 0.83 0.81 0.74 0.95
0.46 0.36 0.51 0.45 0.27 0.26 0.20 0.21 0.22 0.29 0.35 0.33 0.37 0.37 0.33 0.29 0.24 0.18 0.18 0.23 0.23 0.21 0.19 0.22 0.26 0.23 0.23 0.21 0.21 0.26 0.31 0.31 0.28 0.33 0.30 0.32 0.39 0.57 0.65 0.84 0.86 0.81 0.79 0.80 0.75
0.38 0.52 0.60 0.56 0.29 0.24 0.26 0.24 0.25 0.30 0.31 0.31 0.34 0.35 0.36 0.34 0.30 0.24 0.21 0.24 0.26 0.24 0.21 0.24 0.24 0.22 0.23 0.23 0.25 0.26 0.30 0.31 0.29 0.28 0.27 0.29 0.35 0.58 0.68 0.72 0.77 0.77 0.84 0.90 0.87
0.46 0.41 0.56 0.58 0.47 0.32 0.24 0.23 0.23 0.31 0.33 0.34 0.33 0.35 0.32 0.34 0.36 0.30 0.25 0.24 0.28 0.26 0.26 0.22 0.20 0.22 0.25 0.27 0.33 0.30 0.23 0.27 0.26 0.28 0.34 0.36 0.44 0.57 0.57 0.56 0.61 0.73 0.86 0.85 0.95
0.50 0.50 0.71 0.52 0.47 0.40 0.30 0.26 0.26 0.28 0.33 0.36 0.33 0.30 0.31 0.33 0.32 0.31 0.33 0.27 0.28 0.29 0.26 0.22 0.16 0.24 0.29 0.33 0.36 0.36 0.32 0.29 0.26 0.29 0.31 0.35 0.39 0.47 0.53 0.54 0.58 0.62 0.66 0.84 1.06
0.46 0.69 0.79 0.68 0.70 0.57 0.34 0.26 0.28 0.33 0.36 0.37 0.32 0.30 0.31 0.34 0.36 0.32 0.36 0.32 0.27 0.29 0.24 0.25 0.16 0.24 0.27 0.34 0.40 0.36 0.39 0.35 0.34 0.34 0.29 0.31 0.33 0.48 0.49 0.47 0.52 0.57 0.63 0.70 0.86
0.85 0.92 0.86 0.70 0.71 0.59 0.35 0.26 0.28 0.36 0.40 0.40 0.35 0.28 0.27 0.34 0.46 0.49 0.49 0.43 0.35 0.33 0.30 0.27 0.21 0.21 0.23 0.32 0.37 0.32 0.37 0.33 0.32 0.34 0.36 0.33 0.39 0.46 0.45 0.50 0.52 0.55 0.63 0.69 0.78
Wind_Speed
1 2 3 5 6 5 5 4 4 3 3 3 4 5 6 7 8 10 11 13 14 14 15 14 13 11 13 14 11 11 10 13 12 13 13 13 11 11 12 15 11 8 15 16 16
0 1 3 4 6 6 5 5 5 4 4 3 3 3 4 5 6 7 9 12 13 15 12 9 9 10 10 11 13 10 14 13 14 15 10 11 15 13 12 16 14 15 16 16 15
1 1 2 4 6 6 6 6 6 5 5 4 3 2 3 4 5 8 9 10 10 11 10 8 5 6 8 11 9 14 15 14 17 14 13 14 16 11 11 14 14 15 15 15 14
2 2 2 4 6 7 7 7 7 6 6 4 4 3 2 4 5 6 7 7 5 6 9 10 10 4 0 2 12 15 16 12 12 18 15 17 14 12 10 13 14 14 14 14 12
3 3 3 4 6 7 8 8 8 8 7 6 5 5 5 4 4 5 5 4 3 3 5 9 9 13 12 8 11 11 12 17 18 15 13 13 16 15 16 15 14 14 13 12 11
5 4 4 4 5 7 8 9 9 9 8 7 6 6 7 3 4 4 4 3 2 2 5 10 10 11 10 11 10 8 13 10 18 12 10 16 10 15 15 16 16 14 12 11 9
6 5 5 5 6 7 9 10 10 10 10 9 8 7 9 7 3 4 5 3 1 1 3 5 8 10 10 7 8 7 12 8 10 10 10 11 8 13 14 13 13 12 11 10 9
7 6 6 6 6 7 8 10 11 11 11 11 9 9 9 8 7 7 6 5 3 2 1 1 5 6 6 4 4 4 6 6 6 7 9 9 8 11 11 12 11 10 9 9 8
9 8 7 7 7 7 8 10 12 12 12 12 10 10 10 8 9 8 7 6 4 4 4 3 3 5 8 6 3 0 3 2 5 3 6 7 5 8 9 9 9 8 8 8 7
10 9 9 8 8 7 8 9 11 11 13 13 13 9 10 11 9 11 9 8 5 3 4 5 3 5 6 7 3 3 5 2 3 1 3 5 3 7 7 7 7 7 7 6 6
11 11 10 10 9 9 7 9 8 9 14 16 13 14 5 11 11 9 10 8 6 5 4 4 4 4 7 3 2 4 4 2 2 1 2 3 3 4 7 6 6 5 5 5 5
13 12 12 11 11 11 11 10 9 8 11 18 18 16 13 9 9 9 10 8 8 7 5 4 4 4 3 4 2 2 3 4 4 5 2 2 6 7 7 7 6 5 6 6 5
14 14 13 13 13 14 15 12 9 9 10 13 18 16 14 11 10 11 12 11 10 8 7 6 5 2 2 1 2 2 2 0 3 5 5 2 1 7 6 7 6 3 6 7 6
16 15 15 14 14 13 15 13 11 10 9 12 17 17 16 12 12 14 15 11 9 9 8 7 5 2 2 3 3 4 2 6 6 3 3 4 3 4 7 7 8 6 7 8 8
17 17 16 16 16 15 12 12 12 10 8 11 16 12 16 15 6 13 15 12 12 9 6 8 8 5 2 6 5 4 4 5 3 2 3 3 3 5 5 7 7 6 9 11 11
18 18 18 18 19 17 14 13 13 11 12 11 13 13 16 18 15 11 11 13 12 11 10 10 6 4 3 6 3 2 2 4 4 3 5 6 3 4 1 5 6 7 9 14 13
20 20 21 21 21 16 14 15 14 14 10 13 13 14 17 15 16 12 15 14 12 9 10 9 9 6 7 6 5 5 3 4 7 4 4 8 2 4 2 1 2 2 11 18 24
22 22 23 24 23 19 17 17 17 16 15 9 12 13 16 18 17 16 15 13 15 15 9 9 7 10 7 9 8 7 6 4 6 2 8 6 4 1 4 5 7 5 4 7 1
22 22 23 24 26 23 20 20 18 16 12 8 14 14 15 19 16 18 18 15 15 17 14 7 13 9 9 6 8 5 2 5 1 2 6 6 4 1 1 4 5 6 5 10 9
21 23 25 24 27 24 23 22 21 17 13 12 10 15 14 17 19 17 17 16 16 19 15 10 4 8 6 7 9 6 5 1 0 2 3 3 4 6 2 3 5 9 11 12 8
20 21 23 27 27 25 25 24 22 22 19 14 12 8 12 16 18 19 17 17 16 18 19 15 10 9 6 7 10 5 2 5 3 2 5 4 5 5 3 2 3 7 11 12 9
20 19 22 26 25 26 27 24 22 25 21 19 17 14 12 13 16 18 19 16 16 19 18 17 7 10 11 10 12 10 5 4 2 3 4 4 5 4 1 2 3 6 10 11 10
20 21 25 26 25 27 26 27 28 27 24 20 18 16 15 15 12 18 20 19 16 18 16 18 13 7 9 8 10 9 9 8 4 1 6 5 8 7 4 1 3 6 9 10 10
20 21 23 24 26 26 26 27 27 28 27 23 20 18 17 18 15 13 18 18 18 17 16 16 16 14 12 12 10 11 11 11 8 2 1 3 6 6 4 2 4 6 9 10 12
21 22 16 22 25 26 28 25 25 25 27 24 21 22 21 18 16 15 13 18 15 18 15 16 18 15 13 12 16 15 12 13 10 9 6 4 6 8 7 6 6 7 8 11 11
20 19 20 22 22 25 26 28 26 25 23 24 22 23 22 20 19 17 15 16 20 18 17 17 18 16 14 11 10 13 13 11 11 10 10 9 7 9 8 7 6 8 9 9 10
18 20 20 21 17 16 22 25 28 25 23 20 24 21 24 22 18 20 18 18 22 21 19 19 19 20 19 14 9 13 14 11 12 12 11 10 11 10 10 10 9 10 10 10 12
Wind_Direction
85 171 184 190 191 189 186 179 172 156 137 124 102 87 65 59 59 82 83 84 84 89 82 92 71 84 57 44 53 52 54 58 60 70 88 82 90 92 92 112 114 102 123 126 127
346 200 196 195 197 197 197 195 191 182 167 152 133 104 72 55 74 93 94 93 89 85 78 88 74 60 49 44 52 65 59 62 63 78 99 91 90 88 100 99 107 115 123 130 130
296 240 216 206 205 205 204 202 200 195 187 179 171 144 98 66 92 102 110 105 94 76 57 40 26 34 38 51 60 56 59 62 65 80 77 87 88 77 87 106 117 122 131 135 136
280 259 233 219 213 211 210 207 204 202 199 196 191 181 152 114 100 114 120 116 101 62 40 34 32 21 3 78 65 71 68 68 64 57 63 87 85 83 100 107 114 121 130 132 137
269 268 251 235 223 218 215 212 210 207 205 203 199 190 163 148 158 138 133 118 92 47 34 17 43 50 58 104 62 49 54 64 54 58 77 75 84 83 91 103 110 117 127 134 140
262 265 261 245 233 223 218 215 214 213 211 209 204 202 186 194 162 163 165 137 69 41 19 44 53 35 42 88 74 79 80 35 65 69 64 72 81 82 93 100 106 113 121 127 133
261 260 259 252 240 230 223 220 218 217 215 211 209 204 206 204 195 185 191 191 257 359 38 49 37 39 28 81 100 83 76 77 40 63 53 95 70 90 97 99 106 112 119 121 122
258 257 256 253 246 236 228 224 221 219 216 213 212 209 212 214 217 210 213 225 242 266 224 16 20 11 32 11 76 74 78 53 59 45 59 90 81 106 102 102 106 111 120 121 126
255 256 253 250 246 239 232 227 222 217 213 212 209 208 219 217 223 226 218 223 238 237 219 256 9 5 357 24 38 180 242 41 46 4 56 56 89 114 115 107 109 110 113 116 127
253 253 252 248 243 238 234 222 212 215 210 210 214 216 228 227 225 220 216 221 237 243 254 231 284 335 345 323 281 277 231 204 87 340 38 68 117 127 132 121 118 116 117 115 122
252 252 250 245 240 232 218 197 201 208 214 211 210 214 254 212 216 208 206 211 222 230 226 250 264 283 317 25 25 17 62 109 98 77 103 164 162 167 156 137 131 141 143 137 129
251 250 248 244 237 229 211 203 216 228 230 221 225 223 230 208 198 211 205 204 204 209 227 269 252 288 100 28 287 322 341 81 95 155 179 131 207 193 179 177 158 159 163 160 153
249 248 246 243 238 221 210 218 232 234 229 227 213 214 214 213 225 218 207 205 213 220 236 245 265 140 11 84 178 252 325 23 298 303 273 232 322 200 207 194 190 184 182 178 172
249 246 244 242 222 218 215 230 230 232 233 227 208 220 215 211 232 217 208 203 214 227 245 253 267 209 265 227 243 324 330 312 307 301 276 160 230 223 207 203 203 214 193 188 186
248 245 240 229 223 213 224 225 229 218 230 211 198 211 207 205 210 206 206 207 221 227 227 237 254 243 246 213 260 256 11 18 0 279 341 248 101 284 194 212 232 245 223 222 211
248 243 239 221 216 217 228 226 214 216 229 202 193 205 203 211 222 219 199 210 217 233 244 244 264 242 223 229 240 257 297 327 308 284 314 221 170 308 137 192 244 267 265 240 225
249 243 233 224 214 222 227 214 209 213 223 191 196 205 210 207 216 217 203 212 215 214 235 250 251 231 234 254 231 203 259 315 332 267 242 146 73 209 165 25 316 355 331 297 257
250 242 229 223 219 220 216 209 217 214 224 229 204 209 210 211 214 217 203 216 217 223 222 219 247 224 222 213 218 240 254 247 319 166 197 155 169 210 119 76 63 41 9 245 208
251 232 226 221 215 214 212 214 210 202 206 223 211 205 212 217 213 215 216 218 219 215 218 243 256 200 198 213 196 249 291 250 254 150 141 178 190 117 55 352 13 31 9 332 304
240 232 226 217 209 211 213 218 214 209 245 267 227 210 215 215 216 212 217 222 224 214 210 227 250 193 205 223 238 231 267 173 267 148 194 212 205 226 285 331 348 351 353 348 340
232 227 225 209 206 212 218 219 220 227 238 248 239 235 219 210 217 221 221 227 219 221 211 219 223 237 195 228 204 194 215 215 221 178 160 187 223 212 250 248 350 0 356 353 341
228 221 202 200 211 218 222 220 220 231 243 250 229 234 236 240 230 224 223 222 218 217 211 215 201 218 219 227 214 235 235 213 200 268 189 180 250 203 155 134 32 7 359 355 354
224 220 210 211 219 222 225 226 228 229 236 239 229 234 234 241 253 224 219 229 231 211 216 212 227 239 222 239 229 233 237 232 233 268 236 213 224 210 175 138 337 348 346 346 346
220 216 218 219 225 227 225 226 226 227 234 242 231 239 238 238 243 237 218 223 221 215 216 215 223 219 220 237 227 220 224 234 214 184 188 192 190 198 212 245 322 340 337 335 333
216 210 230 221 223 226 226 228 232 230 229 234 235 234 237 237 238 237 242 214 208 212 215 216 225 229 241 276 224 214 216 210 212 222 202 178 178 210 230 260 288 315 328 342 332
217 218 228 230 230 223 221 224 230 233 230 228 226 228 235 235 232 235 244 220 219 224 221 227 230 227 240 253 222 200 210 209 212 220 229 227 238 223 235 257 280 303 313 322 325
222 224 225 222 225 230 221 222 226 231 235 238 226 225 232 232 239 242 244 244 223 221 226 231 224 220 230 236 252 225 223 228 232 234 234 238 225 236 247 258 270 287 299 309 311